This is the latest recevied weather packets stored in our database for station/object AJ5AG. If no packets are shown the sender has not sent any weather packets the latest 10 day(s).
| Time | Temp. | Humidity | Pressure | Rain* | Wind** | Luminosity | Snow |
|---|---|---|---|---|---|---|---|
| 1777741292 | 21.67° C | 54% | 1024 hPa | 0 mm | - | 776 W/m² | - |
| 1777740988 | 21.67° C | 53% | 1023.9 hPa | 0 mm | - | 769 W/m² | - |
| 1777740685 | 21.67° C | 53% | 1023.9 hPa | 0 mm | - | 768 W/m² | - |
| 1777740381 | 21.67° C | 56% | 1023.8 hPa | 0 mm | - | 758 W/m² | - |
| 1777740079 | 21.67° C | 58% | 1023.9 hPa | 0 mm | - | 744 W/m² | - |
| 1777739775 | 21.67° C | 53% | 1024 hPa | 0 mm | - | 733 W/m² | - |
| 1777739471 | 21.67° C | 60% | 1024 hPa | 0 mm | - | 725 W/m² | - |
| 1777739168 | 21.67° C | 60% | 1023.8 hPa | 0 mm | - | 712 W/m² | - |
| 1777738865 | 21.11° C | 61% | 1023.8 hPa | 0 mm | - | 703 W/m² | - |
| 1777738562 | 21.11° C | 66% | 1023.9 hPa | 0 mm | - | 693 W/m² | - |
| 1777738259 | 20.56° C | 63% | 1023.9 hPa | 0 mm | - | 681 W/m² | - |
| 1777737957 | 20.56° C | 68% | 1023.7 hPa | 0 mm | - | 668 W/m² | - |
| 1777737655 | 20.56° C | 61% | 1023.9 hPa | 0 mm | - | 650 W/m² | - |
| 1777737354 | 20.56° C | 67% | 1023.8 hPa | 0 mm | - | 647 W/m² | - |
| 1777737051 | 20.56° C | 69% | 1024 hPa | 0 mm | - | 631 W/m² | - |
| 1777736746 | 20.56° C | 62% | 1024 hPa | 0 mm | - | 614 W/m² | - |
| 1777736118 | 19.44° C | 73% | 1024 hPa | 0 mm | - | 590 W/m² | - |
| 1777735816 | 20° C | 75% | 1023.9 hPa | 0 mm | - | 575 W/m² | - |
| 1777735513 | 19.44° C | 75% | 1023.9 hPa | 0 mm | - | 562 W/m² | - |
| 1777735211 | 18.89° C | 74% | 1023.9 hPa | 0 mm | - | 547 W/m² | - |
| 1777734907 | 18.33° C | 79% | 1023.8 hPa | 0 mm | - | 530 W/m² | - |
| 1777734604 | 18.33° C | 78% | 1023.9 hPa | 0 mm | - | 515 W/m² | - |
| 1777734302 | 17.78° C | 82% | 1023.9 hPa | 0 mm | - | 498 W/m² | - |
| 1777733997 | 17.22° C | 86% | 1023.9 hPa | 0 mm | - | 483 W/m² | - |
| 1777733694 | 16.67° C | 87% | 1023.9 hPa | 0 mm | - | 467 W/m² | - |
* Rain latest hour (hover to see other rain measurements)
** Current wind speed in m/s (hover to see current wind gust speed)